<?xml version="1.0" encoding="UTF-8" standalone="no" ?>
<gpx xmlns="http://www.topografix.com/GPX/1/1" xmlns:xsi="http://www.w3.org/2001/XMLSchema-instance" xsi:schemaLocation="http://www.topografix.com/GPX/1/1 http://www.topografix.com/GPX/1/1/gpx.xsd" version="1.1" creator="VisuGPX - https://www.visugpx.com">
  <metadata>
    <name>Balades et randos - Ecurie AMOEDO</name>
  </metadata>
  <trk>
    <name><![CDATA[Balade des 2 Gués]]></name>
    <trkseg>
      <trkpt lat="47.33141" lon="0.4691">
        <ele>41</ele>
        <time>2000-01-01T11:00:00Z</time>
      </trkpt>
      <trkpt lat="47.33141" lon="0.4691">
        <ele>41</ele>
        <time>2000-01-01T11:00:00Z</time>
      </trkpt>
      <trkpt lat="47.33077" lon="0.46959">
        <ele>38</ele>
        <time>2000-01-01T11:00:36Z</time>
      </trkpt>
      <trkpt lat="47.33027" lon="0.46981">
        <ele>38</ele>
        <time>2000-01-01T11:01:02Z</time>
      </trkpt>
      <trkpt lat="47.32977" lon="0.47003">
        <ele>39</ele>
        <time>2000-01-01T11:01:29Z</time>
      </trkpt>
      <trkpt lat="47.32842" lon="0.46918">
        <ele>40</ele>
        <time>2000-01-01T11:02:42Z</time>
      </trkpt>
      <trkpt lat="47.32838" lon="0.46915">
        <ele>40</ele>
        <time>2000-01-01T11:02:44Z</time>
      </trkpt>
      <trkpt lat="47.32897" lon="0.46703">
        <ele>40</ele>
        <time>2000-01-01T11:04:03Z</time>
      </trkpt>
      <trkpt lat="47.32896" lon="0.46675">
        <ele>40</ele>
        <time>2000-01-01T11:04:12Z</time>
      </trkpt>
      <trkpt lat="47.32796" lon="0.46567">
        <ele>38</ele>
        <time>2000-01-01T11:05:14Z</time>
      </trkpt>
      <trkpt lat="47.32765" lon="0.46544">
        <ele>38</ele>
        <time>2000-01-01T11:05:32Z</time>
      </trkpt>
      <trkpt lat="47.32727" lon="0.46445">
        <ele>39</ele>
        <time>2000-01-01T11:06:10Z</time>
      </trkpt>
      <trkpt lat="47.32644" lon="0.46537">
        <ele>38</ele>
        <time>2000-01-01T11:07:02Z</time>
      </trkpt>
      <trkpt lat="47.32539" lon="0.4643">
        <ele>38</ele>
        <time>2000-01-01T11:08:06Z</time>
      </trkpt>
      <trkpt lat="47.32473" lon="0.46362">
        <ele>38</ele>
        <time>2000-01-01T11:08:47Z</time>
      </trkpt>
      <trkpt lat="47.32449" lon="0.46338">
        <ele>38</ele>
        <time>2000-01-01T11:09:01Z</time>
      </trkpt>
      <trkpt lat="47.32369" lon="0.46188">
        <ele>40</ele>
        <time>2000-01-01T11:10:06Z</time>
      </trkpt>
      <trkpt lat="47.3232" lon="0.46086">
        <ele>42</ele>
        <time>2000-01-01T11:10:48Z</time>
      </trkpt>
      <trkpt lat="47.32272" lon="0.4599">
        <ele>42</ele>
        <time>2000-01-01T11:11:29Z</time>
      </trkpt>
      <trkpt lat="47.32225" lon="0.45893">
        <ele>44</ele>
        <time>2000-01-01T11:12:09Z</time>
      </trkpt>
      <trkpt lat="47.32177" lon="0.45797">
        <ele>46</ele>
        <time>2000-01-01T11:12:50Z</time>
      </trkpt>
      <trkpt lat="47.32147" lon="0.45692">
        <ele>47</ele>
        <time>2000-01-01T11:13:29Z</time>
      </trkpt>
      <trkpt lat="47.32161" lon="0.45658">
        <ele>48</ele>
        <time>2000-01-01T11:13:42Z</time>
      </trkpt>
      <trkpt lat="47.32083" lon="0.45507">
        <ele>42</ele>
        <time>2000-01-01T11:14:47Z</time>
      </trkpt>
      <trkpt lat="47.32041" lon="0.45391">
        <ele>40</ele>
        <time>2000-01-01T11:15:32Z</time>
      </trkpt>
      <trkpt lat="47.32003" lon="0.45286">
        <ele>39</ele>
        <time>2000-01-01T11:16:12Z</time>
      </trkpt>
      <trkpt lat="47.31969" lon="0.45177">
        <ele>40</ele>
        <time>2000-01-01T11:16:53Z</time>
      </trkpt>
      <trkpt lat="47.31935" lon="0.45069">
        <ele>41</ele>
        <time>2000-01-01T11:17:33Z</time>
      </trkpt>
      <trkpt lat="47.31901" lon="0.44961">
        <ele>40</ele>
        <time>2000-01-01T11:18:14Z</time>
      </trkpt>
      <trkpt lat="47.31879" lon="0.44892">
        <ele>38</ele>
        <time>2000-01-01T11:18:40Z</time>
      </trkpt>
      <trkpt lat="47.31776" lon="0.44946">
        <ele>43</ele>
        <time>2000-01-01T11:19:35Z</time>
      </trkpt>
      <trkpt lat="47.31745" lon="0.44962">
        <ele>44</ele>
        <time>2000-01-01T11:19:51Z</time>
      </trkpt>
      <trkpt lat="47.31688" lon="0.45133">
        <ele>44</ele>
        <time>2000-01-01T11:20:56Z</time>
      </trkpt>
      <trkpt lat="47.31652" lon="0.4524">
        <ele>42</ele>
        <time>2000-01-01T11:21:36Z</time>
      </trkpt>
      <trkpt lat="47.3162" lon="0.45336">
        <ele>41</ele>
        <time>2000-01-01T11:22:13Z</time>
      </trkpt>
      <trkpt lat="47.31591" lon="0.45435">
        <ele>40</ele>
        <time>2000-01-01T11:22:50Z</time>
      </trkpt>
      <trkpt lat="47.31504" lon="0.45496">
        <ele>40</ele>
        <time>2000-01-01T11:23:38Z</time>
      </trkpt>
      <trkpt lat="47.31503" lon="0.45497">
        <ele>40</ele>
        <time>2000-01-01T11:23:39Z</time>
      </trkpt>
      <trkpt lat="47.31461" lon="0.45457">
        <ele>42</ele>
        <time>2000-01-01T11:24:04Z</time>
      </trkpt>
      <trkpt lat="47.31418" lon="0.45448">
        <ele>42</ele>
        <time>2000-01-01T11:24:25Z</time>
      </trkpt>
      <trkpt lat="47.31426" lon="0.45495">
        <ele>44</ele>
        <time>2000-01-01T11:24:41Z</time>
      </trkpt>
      <trkpt lat="47.31432" lon="0.45542">
        <ele>48</ele>
        <time>2000-01-01T11:24:58Z</time>
      </trkpt>
      <trkpt lat="47.31429" lon="0.45572">
        <ele>52</ele>
        <time>2000-01-01T11:25:08Z</time>
      </trkpt>
      <trkpt lat="47.31463" lon="0.45693">
        <ele>62</ele>
        <time>2000-01-01T11:25:53Z</time>
      </trkpt>
      <trkpt lat="47.31451" lon="0.45763">
        <ele>66</ele>
        <time>2000-01-01T11:26:18Z</time>
      </trkpt>
      <trkpt lat="47.31459" lon="0.45825">
        <ele>66</ele>
        <time>2000-01-01T11:26:39Z</time>
      </trkpt>
      <trkpt lat="47.31487" lon="0.45888">
        <ele>66</ele>
        <time>2000-01-01T11:27:05Z</time>
      </trkpt>
      <trkpt lat="47.31494" lon="0.45943">
        <ele>66</ele>
        <time>2000-01-01T11:27:24Z</time>
      </trkpt>
      <trkpt lat="47.31483" lon="0.46001">
        <ele>67</ele>
        <time>2000-01-01T11:27:44Z</time>
      </trkpt>
      <trkpt lat="47.31472" lon="0.46085">
        <ele>69</ele>
        <time>2000-01-01T11:28:13Z</time>
      </trkpt>
      <trkpt lat="47.31511" lon="0.46162">
        <ele>70</ele>
        <time>2000-01-01T11:28:46Z</time>
      </trkpt>
      <trkpt lat="47.31528" lon="0.46211">
        <ele>72</ele>
        <time>2000-01-01T11:29:05Z</time>
      </trkpt>
      <trkpt lat="47.31595" lon="0.4634">
        <ele>78</ele>
        <time>2000-01-01T11:30:00Z</time>
      </trkpt>
      <trkpt lat="47.31681" lon="0.4648">
        <ele>77</ele>
        <time>2000-01-01T11:31:04Z</time>
      </trkpt>
      <trkpt lat="47.31736" lon="0.46568">
        <ele>77</ele>
        <time>2000-01-01T11:31:45Z</time>
      </trkpt>
      <trkpt lat="47.31751" lon="0.46593">
        <ele>76</ele>
        <time>2000-01-01T11:31:56Z</time>
      </trkpt>
      <trkpt lat="47.31836" lon="0.46755">
        <ele>76</ele>
        <time>2000-01-01T11:33:06Z</time>
      </trkpt>
      <trkpt lat="47.31886" lon="0.46849">
        <ele>75</ele>
        <time>2000-01-01T11:33:46Z</time>
      </trkpt>
      <trkpt lat="47.31889" lon="0.46855">
        <ele>75</ele>
        <time>2000-01-01T11:33:49Z</time>
      </trkpt>
      <trkpt lat="47.31983" lon="0.46913">
        <ele>73</ele>
        <time>2000-01-01T11:34:40Z</time>
      </trkpt>
      <trkpt lat="47.3209" lon="0.46971">
        <ele>66</ele>
        <time>2000-01-01T11:35:37Z</time>
      </trkpt>
      <trkpt lat="47.32168" lon="0.47024">
        <ele>63</ele>
        <time>2000-01-01T11:36:20Z</time>
      </trkpt>
      <trkpt lat="47.32213" lon="0.47121">
        <ele>63</ele>
        <time>2000-01-01T11:37:00Z</time>
      </trkpt>
      <trkpt lat="47.32251" lon="0.47166">
        <ele>62</ele>
        <time>2000-01-01T11:37:24Z</time>
      </trkpt>
      <trkpt lat="47.32277" lon="0.4723">
        <ele>58</ele>
        <time>2000-01-01T11:37:50Z</time>
      </trkpt>
      <trkpt lat="47.32279" lon="0.47265">
        <ele>56</ele>
        <time>2000-01-01T11:38:02Z</time>
      </trkpt>
      <trkpt lat="47.32251" lon="0.47333">
        <ele>52</ele>
        <time>2000-01-01T11:38:29Z</time>
      </trkpt>
      <trkpt lat="47.32239" lon="0.47357">
        <ele>50</ele>
        <time>2000-01-01T11:38:39Z</time>
      </trkpt>
      <trkpt lat="47.3214" lon="0.4734">
        <ele>54</ele>
        <time>2000-01-01T11:39:29Z</time>
      </trkpt>
      <trkpt lat="47.32196" lon="0.47499">
        <ele>47</ele>
        <time>2000-01-01T11:40:30Z</time>
      </trkpt>
      <trkpt lat="47.32115" lon="0.47533">
        <ele>49</ele>
        <time>2000-01-01T11:41:12Z</time>
      </trkpt>
      <trkpt lat="47.32114" lon="0.47533">
        <ele>49</ele>
        <time>2000-01-01T11:41:13Z</time>
      </trkpt>
      <trkpt lat="47.32071" lon="0.47587">
        <ele>50</ele>
        <time>2000-01-01T11:41:41Z</time>
      </trkpt>
      <trkpt lat="47.32035" lon="0.47621">
        <ele>52</ele>
        <time>2000-01-01T11:42:02Z</time>
      </trkpt>
      <trkpt lat="47.32033" lon="0.47673">
        <ele>53</ele>
        <time>2000-01-01T11:42:20Z</time>
      </trkpt>
      <trkpt lat="47.3201" lon="0.47794">
        <ele>56</ele>
        <time>2000-01-01T11:43:03Z</time>
      </trkpt>
      <trkpt lat="47.31966" lon="0.47805">
        <ele>52</ele>
        <time>2000-01-01T11:43:25Z</time>
      </trkpt>
      <trkpt lat="47.31875" lon="0.4784">
        <ele>56</ele>
        <time>2000-01-01T11:44:12Z</time>
      </trkpt>
      <trkpt lat="47.31878" lon="0.47861">
        <ele>56</ele>
        <time>2000-01-01T11:44:19Z</time>
      </trkpt>
      <trkpt lat="47.31889" lon="0.47971">
        <ele>61</ele>
        <time>2000-01-01T11:44:57Z</time>
      </trkpt>
      <trkpt lat="47.31874" lon="0.48027">
        <ele>63</ele>
        <time>2000-01-01T11:45:18Z</time>
      </trkpt>
      <trkpt lat="47.31872" lon="0.48134">
        <ele>62</ele>
        <time>2000-01-01T11:45:54Z</time>
      </trkpt>
      <trkpt lat="47.31884" lon="0.48177">
        <ele>63</ele>
        <time>2000-01-01T11:46:10Z</time>
      </trkpt>
      <trkpt lat="47.31923" lon="0.48245">
        <ele>62</ele>
        <time>2000-01-01T11:46:40Z</time>
      </trkpt>
      <trkpt lat="47.31955" lon="0.4831">
        <ele>66</ele>
        <time>2000-01-01T11:47:08Z</time>
      </trkpt>
      <trkpt lat="47.31953" lon="0.48366">
        <ele>64</ele>
        <time>2000-01-01T11:47:27Z</time>
      </trkpt>
      <trkpt lat="47.31962" lon="0.48454">
        <ele>62</ele>
        <time>2000-01-01T11:47:57Z</time>
      </trkpt>
      <trkpt lat="47.31977" lon="0.48494">
        <ele>62</ele>
        <time>2000-01-01T11:48:13Z</time>
      </trkpt>
      <trkpt lat="47.32003" lon="0.48544">
        <ele>67</ele>
        <time>2000-01-01T11:48:34Z</time>
      </trkpt>
      <trkpt lat="47.32028" lon="0.48567">
        <ele>68</ele>
        <time>2000-01-01T11:48:49Z</time>
      </trkpt>
      <trkpt lat="47.32037" lon="0.48651">
        <ele>65</ele>
        <time>2000-01-01T11:49:18Z</time>
      </trkpt>
      <trkpt lat="47.3212" lon="0.48653">
        <ele>75</ele>
        <time>2000-01-01T11:49:59Z</time>
      </trkpt>
      <trkpt lat="47.32144" lon="0.48653">
        <ele>76</ele>
        <time>2000-01-01T11:50:12Z</time>
      </trkpt>
      <trkpt lat="47.32213" lon="0.48627">
        <ele>81</ele>
        <time>2000-01-01T11:50:47Z</time>
      </trkpt>
      <trkpt lat="47.32236" lon="0.48578">
        <ele>81</ele>
        <time>2000-01-01T11:51:08Z</time>
      </trkpt>
      <trkpt lat="47.32262" lon="0.48542">
        <ele>80</ele>
        <time>2000-01-01T11:51:26Z</time>
      </trkpt>
      <trkpt lat="47.32404" lon="0.48621">
        <ele>80</ele>
        <time>2000-01-01T11:52:41Z</time>
      </trkpt>
      <trkpt lat="47.3248" lon="0.48663">
        <ele>82</ele>
        <time>2000-01-01T11:53:22Z</time>
      </trkpt>
      <trkpt lat="47.32519" lon="0.48684">
        <ele>82</ele>
        <time>2000-01-01T11:53:43Z</time>
      </trkpt>
      <trkpt lat="47.32629" lon="0.48757">
        <ele>79</ele>
        <time>2000-01-01T11:54:43Z</time>
      </trkpt>
      <trkpt lat="47.32702" lon="0.48806">
        <ele>80</ele>
        <time>2000-01-01T11:55:24Z</time>
      </trkpt>
      <trkpt lat="47.32728" lon="0.48823">
        <ele>80</ele>
        <time>2000-01-01T11:55:37Z</time>
      </trkpt>
      <trkpt lat="47.32766" lon="0.48733">
        <ele>81</ele>
        <time>2000-01-01T11:56:13Z</time>
      </trkpt>
      <trkpt lat="47.32799" lon="0.48559">
        <ele>81</ele>
        <time>2000-01-01T11:57:15Z</time>
      </trkpt>
      <trkpt lat="47.32778" lon="0.48544">
        <ele>80</ele>
        <time>2000-01-01T11:57:26Z</time>
      </trkpt>
      <trkpt lat="47.32749" lon="0.48478">
        <ele>78</ele>
        <time>2000-01-01T11:57:53Z</time>
      </trkpt>
      <trkpt lat="47.32707" lon="0.48353">
        <ele>77</ele>
        <time>2000-01-01T11:58:41Z</time>
      </trkpt>
      <trkpt lat="47.32702" lon="0.48341">
        <ele>77</ele>
        <time>2000-01-01T11:58:45Z</time>
      </trkpt>
      <trkpt lat="47.32692" lon="0.48302">
        <ele>75</ele>
        <time>2000-01-01T11:59:00Z</time>
      </trkpt>
      <trkpt lat="47.32695" lon="0.48262">
        <ele>75</ele>
        <time>2000-01-01T11:59:13Z</time>
      </trkpt>
      <trkpt lat="47.3272" lon="0.48193">
        <ele>72</ele>
        <time>2000-01-01T11:59:40Z</time>
      </trkpt>
      <trkpt lat="47.32777" lon="0.48101">
        <ele>54</ele>
        <time>2000-01-01T12:00:23Z</time>
      </trkpt>
      <trkpt lat="47.32795" lon="0.48138">
        <ele>53</ele>
        <time>2000-01-01T12:00:38Z</time>
      </trkpt>
      <trkpt lat="47.32819" lon="0.48108">
        <ele>49</ele>
        <time>2000-01-01T12:00:54Z</time>
      </trkpt>
      <trkpt lat="47.32935" lon="0.48001">
        <ele>43</ele>
        <time>2000-01-01T12:02:03Z</time>
      </trkpt>
      <trkpt lat="47.32946" lon="0.47985">
        <ele>44</ele>
        <time>2000-01-01T12:02:11Z</time>
      </trkpt>
      <trkpt lat="47.32937" lon="0.47942">
        <ele>44</ele>
        <time>2000-01-01T12:02:26Z</time>
      </trkpt>
      <trkpt lat="47.32928" lon="0.47871">
        <ele>45</ele>
        <time>2000-01-01T12:02:50Z</time>
      </trkpt>
      <trkpt lat="47.32923" lon="0.47825">
        <ele>44</ele>
        <time>2000-01-01T12:03:06Z</time>
      </trkpt>
      <trkpt lat="47.32932" lon="0.47732">
        <ele>42</ele>
        <time>2000-01-01T12:03:38Z</time>
      </trkpt>
      <trkpt lat="47.32907" lon="0.4752">
        <ele>43</ele>
        <time>2000-01-01T12:04:52Z</time>
      </trkpt>
      <trkpt lat="47.32907" lon="0.47518">
        <ele>43</ele>
        <time>2000-01-01T12:04:52Z</time>
      </trkpt>
      <trkpt lat="47.32903" lon="0.4731">
        <ele>43</ele>
        <time>2000-01-01T12:06:03Z</time>
      </trkpt>
      <trkpt lat="47.3292" lon="0.47313">
        <ele>42</ele>
        <time>2000-01-01T12:06:11Z</time>
      </trkpt>
      <trkpt lat="47.32972" lon="0.47276">
        <ele>41</ele>
        <time>2000-01-01T12:06:40Z</time>
      </trkpt>
      <trkpt lat="47.32984" lon="0.47234">
        <ele>41</ele>
        <time>2000-01-01T12:06:56Z</time>
      </trkpt>
      <trkpt lat="47.32937" lon="0.47113">
        <ele>40</ele>
        <time>2000-01-01T12:07:43Z</time>
      </trkpt>
      <trkpt lat="47.32925" lon="0.47072">
        <ele>40</ele>
        <time>2000-01-01T12:07:58Z</time>
      </trkpt>
      <trkpt lat="47.32931" lon="0.47047">
        <ele>40</ele>
        <time>2000-01-01T12:08:07Z</time>
      </trkpt>
      <trkpt lat="47.32942" lon="0.47027">
        <ele>40</ele>
        <time>2000-01-01T12:08:16Z</time>
      </trkpt>
      <trkpt lat="47.32997" lon="0.47003">
        <ele>38</ele>
        <time>2000-01-01T12:08:45Z</time>
      </trkpt>
      <trkpt lat="47.33067" lon="0.46973">
        <ele>38</ele>
        <time>2000-01-01T12:09:21Z</time>
      </trkpt>
      <trkpt lat="47.33142" lon="0.46923">
        <ele>40</ele>
        <time>2000-01-01T12:10:02Z</time>
      </trkpt>
    </trkseg>
  </trk>
</gpx>